Tracking 33197 objects as of 18-Feb-2026
HD Live streaming from Space Station
objects crossing your sky now

STARLINK-4784

Track STARLINK-4784 now!
10-day predictions
STARLINK-4784 is classified as:


NORAD ID: 53839
Int'l Code: 2022-114X
Perigee: 545.8 km
Apogee: 547.9 km
Inclination: 53.2 °
Period: 95.4 minutes
Semi major axis: 6917 km
RCS: Unknown
Launch date: September 19, 2022
Source: United States (US)
Launch site: AIR FORCE EASTERN TEST RANGE (AFETR)
Your satellite tracking list
Your tracking list is empty




NASA's NSSDC Master Catalog

Two Line Element Set (TLE):
1 53839U 22114X   26049.11915576 -.00000306  00000-0 -11090-5 0  9991
2 53839  53.2201  22.2194 0001517  88.4332 271.6833 15.08841290190014
Source of the keplerian elements: AFSPC